Location: Ammerl�gen
(47.2167°N, 9.6000°E)
Time: 10:16:16
(UTC+00:00)

USA 215 - Pass Details

Date: 21 April 2021
Orbit: 1101 x 1107 km, 123.0° (Epoch: 05 May)

Event Time Altitude Azimuth Distance (km) Brightness Sun altitude
Exits shadow 20:18:58 26° 113° (ESE) 2,011 4.1 -18.2°
Maximum altitude 20:22:55 77° 32° (NNE) 1,130 3.3 -18.7°
Drops below altitude 10° 20:29:28 10° 308° (NW) 2,965 6.7 -19.5°
Sets 20:31:57 0° 307° (NW) 3,925 7.7 -19.8°
